[[{"header":{"parameterUnit":"m.s-1","parameterCategory":1,"la1":30.2991,"la2":30.254,"lo1":-89.0895,"lo2":-89.0444,"dy":0.0017,"dx":0.0017,"nx":28,"ny":28,"refTime":"2024-06-21T09:00:00:Z","depth":0,"parameterNumber":2,"parameterNumberName":"U-component_of_WINDS"},"data":[0,0,0,0,0,0,0,0,0,0,0,0,0,0,0,0,0,0,0,0,0,0,0,0,0,0,0,0,0,0,0,0,0,0,0,0,0,0,0,0,0,0,0,0,0,0,0,0,0,0,0,0,0,0,0,0,0,0,-4.2146,-4.2145,0,-4.2072,-4.2071,-4.207,-4.1873,-4.1869,-4.1864,-4.186,-4.1789,-4.1791,-4.1793,0,0,0,0,0,0,0,0,0,0,0,0,0,-4.2122,-4.2124,-4.2146,-4.2145,-4.2144,-4.2072,-4.2071,-4.207,-4.1874,-4.1869,-4.1863,-4.1859,-4.1788,-4.1791,-4.1793,0,0,0,0,0,0,0,0,0,0,0,0,0,-4.2099,-4.2124,-4.2146,-4.2038,-4.2027,-4.2072,-4.2071,-4.207,-4.1875,-4.1868,-4.1862,-4.1856,-4.1787,-4.179,-4.1793,-4.1939,0,0,-4.1803,-4.1804,0,0,0,0,0,0,0,0,-4.2101,-4.21,-4.2055,-4.2045,-4.2033,-4.1975,-4.2036,-4.2026,-4.1876,-4.1933,-4.186,-4.1853,-4.1856,-4.1853,-4.1853,-4.1936,-4.1933,-4.1803,-4.1805,-4.1806,-4.1807,0,0,0,0,0,0,0,-4.2102,-4.2102,-4.2117,-4.2054,-4.2041,-4.1994,-4.1983,-4.2033,-4.1931,-4.1927,-4.1913,-4.1907,-4.1849,-4.1851,-4.185,-4.1932,-4.1803,-4.1806,-4.1808,-4.1809,-4.2129,-4.2135,0,0,0,0,0,0,-4.2119,-4.2105,-4.2119,-4.2115,-4.2052,-4.1999,-4.1988,-4.2,-4.193,-4.1913,-4.1912,-4.1898,-4.1849,-4.1847,-4.1847,-4.2011,-4.1806,-4.1809,-4.1811,-4.2122,-4.213,-4.2137,0,0,0,0,0,0,-4.2119,-4.2122,-4.2122,-4.2106,-4.2102,-4.2006,-4.2022,-4.2002,-4.2003,-4.1918,-4.19,-4.1932,-4.1844,-4.1843,-4.1917,-4.2006,-4.181,-4.1813,-4.2114,-4.2124,-4.2134,-4.2343,0,0,0,0,0,0,-4.2119,-4.2123,-4.2177,-4.2108,-4.2104,-4.2193,-4.2028,-4.2005,-4.2009,-4.1989,-4.1932,-4.1917,-4.1839,-4.1914,-4.192,-4.2007,-4.1816,-4.2106,-4.2119,-4.2131,-4.2327,-4.2359,-4.2385,0,0,0,0,0,-4.2119,-4.224,-4.2181,-4.2184,-4.2168,-4.2199,-4.2196,-4.2102,-4.2017,-4.207,-4.2015,-4.1919,-4.1996,-4.1923,-4.1929,-4.2018,-4.21,-4.2115,-4.213,-4.2314,-4.2352,-4.2385,0,0,0,0,0,0,-4.2324,-4.2229,-4.2162,-4.2264,-4.2241,-4.2165,-4.2229,-4.2146,-4.2147,-4.2129,-4.2014,-4.2003,-4.2094,-4.2063,-4.1983,-4.2154,-4.2032,-4.2049,-4.217,-4.2206,-4.2234,-4.2239,-4.1818,0,0,0,0,0,-4.2381,-4.2412,-4.2328,-4.2426,-4.2418,-4.2327,-4.2336,-4.2266,-4.2237,-4.2227,-4.2177,-4.2155,-4.2173,-4.2188,-4.2201,-4.2323,-4.2307,-4.2387,-4.2416,-4.244,-4.2455,-4.2516,-4.255,-4.2187,-4.2186,-4.2186,0,0,-4.2499,-4.2451,-4.2478,-4.2466,-4.2439,-4.2475,-4.2319,-4.2364,-4.2389,-4.2234,-4.23,-4.2264,-4.2231,-4.2329,-4.237,-4.2306,-4.2553,-4.2459,-4.2479,-4.2481,-4.2535,-4.257,-4.26,-4.2197,-4.2195,-4.2193,0,0,-4.2731,-4.2699,-4.2776,-4.2752,-4.2713,-4.2651,-4.267,-4.2607,-4.2576,-4.2641,-4.2524,-4.2554,-4.2589,-4.257,-4.2565,-4.279,-4.2701,-4.2798,-4.2948,-4.3009,-4.3038,-4.3062,-4.3141,-4.3171,-4.2814,-4.2814,-4.2815,0,-4.2883,-4.293,-4.2827,-4.2877,-4.2876,-4.2736,-4.2813,-4.2796,-4.2764,-4.2767,-4.2696,-4.2736,-4.2704,-4.2795,-4.285,-4.2851,-4.2869,-4.2803,-4.3042,-4.3065,-4.3087,-4.3161,-4.3191,-4.2826,-4.2825,-4.2824,-4.2823,0,-4.3118,-4.3153,-4.322,-4.319,-4.3196,-4.3261,-4.3168,-4.3187,-4.3117,-4.3063,-4.3131,-4.3087,-4.3088,-4.3105,-4.3038,-4.3187,-4.3148,-4.3062,-4.2936,-4.3135,-4.3203,-4.323,-4.2843,-4.2839,-4.2835,-4.2833,0,0,-4.3476,-4.3388,-4.3414,-4.3398,-4.3345,-4.337,-4.3429,-4.3428,-4.3446,-4.3429,-4.3475,-4.3508,-4.3427,-4.3421,-4.3351,-4.3405,-4.3584,-4.331,-4.3308,-4.3361,-4.3744,-4.3808,-4.3842,-4.3525,-4.353,-4.3534,-4.3746,0,-4.3693,-4.3786,-4.3694,-4.3806,-4.3836,-4.3704,-4.3754,-4.3728,-4.368,-4.37,-4.3647,-4.3671,-4.3563,-4.3559,-4.3606,-4.3552,-4.3659,-4.3536,-4.3566,-4.3569,-4.3577,-4.3878,-4.3946,-4.4148,-4.3772,-4.3776,-4.3779,0,-4.3959,-4.3952,-4.4066,-4.4004,-4.4013,-4.406,-4.4051,-4.4072,-4.404,-4.4001,-4.3995,-4.3909,-4.3962,-4.3842,-4.3914,-4.3832,-4.384,-4.3816,-4.3821,-4.3819,-4.3685,-4.3882,-4.421,-4.424,-4.382,-4.3817,-4.3814,0,-4.4206,-4.4226,-4.4296,-4.4287,-4.4217,-4.4253,-4.4226,-4.4187,-4.4192,-4.4185,-4.4187,-4.4189,-4.4189,-4.4192,-4.4109,-4.4028,-4.4191,-4.4064,-4.416,-4.4163,-4.4199,-4.4198,-4.4531,-4.4208,-4.4208,-4.4207,-4.4206,0,-4.4457,-4.4532,-4.4406,-4.4449,-4.4528,-4.4424,-4.4506,-4.4465,-4.4432,-4.4465,-4.4353,-4.4387,-4.4275,-4.4298,-4.4234,-4.4303,-4.4305,-4.4275,-4.4257,-4.4284,-4.4288,-4.4286,-4.4269,-4.4215,-4.4213,-4.4212,-4.421,0,-4.4746,-4.4665,-4.4732,-4.466,-4.4644,-4.4706,-4.4644,-4.4682,-4.4626,-4.467,-4.4674,-4.4588,-4.4609,-4.4526,-4.4534,-4.449,-4.4593,-4.4552,-4.4603,-4.459,-4.4691,-4.4682,-4.5033,-4.5074,-4.4727,-4.4731,-4.4734,0,-4.4911,-4.4965,-4.4898,-4.4911,-4.4889,-4.4913,-4.4916,-4.4816,-4.4825,-4.4792,-4.4834,-4.4845,-4.4848,-4.4888,-4.4827,-4.4832,-4.4789,-4.4912,-4.4789,-4.4815,-4.4789,-4.4786,-4.479,-4.4937,-4.4942,-4.4945,-4.4948,0,-4.5211,-4.5168,-4.5176,-4.5172,-4.5179,-4.5171,-4.5156,-4.5174,-4.5065,-4.5081,-4.51,-4.5103,-4.511,-4.5122,-4.5114,-4.5087,-4.5001,-4.4987,-4.501,-4.5037,-4.5064,-4.5049,-4.4671,-4.4979,-4.4976,-4.4974,-4.4972,-4.4971,-4.5441,-4.5482,-4.5441,-4.5454,-4.5432,-4.542,-4.545,-4.5398,-4.5412,-4.5407,-4.5348,-4.5379,-4.5345,-4.5325,-4.5307,-4.533,-4.5272,-4.5306,-4.5313,-4.5323,-4.5339,-4.5062,-4.5329,-4.5328,-4.5327,-4.5326,-4.5325,0,-4.5733,-4.57,-4.5714,-4.5694,-4.5705,-4.5621,-4.5599,-4.5614,-4.5642,-4.5617,-4.5622,-4.5644,-4.5655,-4.5595,-4.5599,-4.5629,-4.5589,-4.5633,-4.5629,-4.5624,-4.5391,-4.5371,-4.5665,-4.5665,-4.5665,-4.5665,-4.5665,-4.5665,-4.5887,-4.5951,-4.5903,-4.5955,-4.5921,-4.5949,-4.5943,-4.5932,-4.5911,-4.594,-4.5948,-4.5908,-4.5869,-4.5868,-4.5875,-4.5857,-4.5863,-4.5921,-4.589,-4.5673,-4.564,-4.5609,-4.5588,-4.5924,-4.5924,-4.6119,-4.6121,-4.6123]},{"header":{"parameterUnit":"m.s-1","parameterCategory":1,"la1":30.2991,"la2":30.254,"lo1":-89.0895,"lo2":-89.0444,"dy":0.0017,"dx":0.0017,"nx":28,"ny":28,"refTime":"2024-06-21T09:00:00:Z","depth":0,"parameterNumber":3,"parameterNumberName":"V-component_of_WINDS"},"data":[0,0,0,0,0,0,0,0,0,0,0,0,0,0,0,0,0,0,0,0,0,0,0,0,0,0,0,0,0,0,0,0,0,0,0,0,0,0,0,0,0,0,0,0,0,0,0,0,0,0,0,0,0,0,0,0,0,0,-0.6733,-0.6734,0,-0.6806,-0.6807,-0.6807,-0.6836,-0.6836,-0.6836,-0.6836,-0.6912,-0.6914,-0.6917,0,0,0,0,0,0,0,0,0,0,0,0,0,-0.6618,-0.662,-0.6733,-0.6734,-0.6735,-0.6806,-0.6807,-0.6808,-0.6836,-0.6836,-0.6836,-0.6836,-0.6912,-0.6914,-0.6917,0,0,0,0,0,0,0,0,0,0,0,0,0,-0.6677,-0.6621,-0.6733,-0.6757,-0.676,-0.6805,-0.6807,-0.6808,-0.6836,-0.6836,-0.6836,-0.6836,-0.6911,-0.6914,-0.6917,-0.6943,0,0,-0.6927,-0.6929,0,0,0,0,0,0,0,0,-0.6674,-0.6681,-0.6753,-0.6756,-0.6759,-0.6812,-0.6794,-0.6853,-0.6837,-0.6808,-0.6836,-0.6836,-0.6879,-0.6885,-0.6899,-0.6947,-0.695,-0.6928,-0.693,-0.6931,-0.6932,0,0,0,0,0,0,0,-0.667,-0.6678,-0.6762,-0.6754,-0.6758,-0.6765,-0.6773,-0.6806,-0.6844,-0.681,-0.6812,-0.6821,-0.6881,-0.6896,-0.6901,-0.6951,-0.6927,-0.693,-0.6932,-0.6934,-0.7021,-0.7022,0,0,0,0,0,0,-0.6661,-0.6675,-0.6759,-0.6764,-0.6715,-0.6767,-0.6776,-0.6795,-0.6844,-0.6851,-0.6821,-0.6822,-0.6891,-0.6897,-0.6904,-0.6937,-0.6931,-0.6934,-0.6936,-0.7021,-0.7022,-0.7022,0,0,0,0,0,0,-0.6659,-0.6669,-0.6756,-0.672,-0.6732,-0.6769,-0.679,-0.6797,-0.6812,-0.6852,-0.6859,-0.6829,-0.6891,-0.69,-0.6933,-0.694,-0.6936,-0.6939,-0.7021,-0.7021,-0.7022,-0.7003,0,0,0,0,0,0,-0.6655,-0.6668,-0.6678,-0.672,-0.6733,-0.6784,-0.6791,-0.6798,-0.6818,-0.6819,-0.6862,-0.6869,-0.6891,-0.6928,-0.6936,-0.6944,-0.6941,-0.702,-0.7021,-0.7022,-0.7003,-0.7003,-0.7002,0,0,0,0,0,-0.6651,-0.6671,-0.6679,-0.6689,-0.6748,-0.6784,-0.6792,-0.6817,-0.6818,-0.6829,-0.6854,-0.6867,-0.6937,-0.6931,-0.694,-0.695,-0.702,-0.7021,-0.7022,-0.7003,-0.7003,-0.7002,0,0,0,0,0,0,-0.6631,-0.6677,-0.6686,-0.672,-0.6748,-0.6789,-0.6804,-0.6816,-0.6845,-0.6846,-0.6876,-0.6885,-0.6916,-0.6936,-0.6928,-0.6977,-0.698,-0.6982,-0.6962,-0.6962,-0.6962,-0.6957,-0.6944,0,0,0,0,0,-0.6629,-0.6655,-0.6695,-0.6721,-0.6734,-0.6766,-0.6783,-0.68,-0.683,-0.6842,-0.687,-0.6899,-0.6928,-0.6946,-0.6975,-0.7006,-0.7015,-0.7017,-0.7016,-0.7016,-0.7018,-0.7034,-0.7035,-0.7024,-0.7024,-0.7024,0,0,-0.6629,-0.6657,-0.6672,-0.6717,-0.6741,-0.6766,-0.6776,-0.6803,-0.6823,-0.6847,-0.6879,-0.69,-0.6935,-0.6966,-0.6982,-0.6984,-0.7023,-0.7017,-0.7016,-0.7019,-0.7035,-0.7036,-0.7037,-0.7025,-0.7025,-0.7025,0,0,-0.664,-0.6664,-0.6688,-0.671,-0.6745,-0.6766,-0.6771,-0.681,-0.6825,-0.6858,-0.6875,-0.6899,-0.6948,-0.6971,-0.6989,-0.7005,-0.7018,-0.7014,-0.7012,-0.7028,-0.7029,-0.7029,-0.7035,-0.7036,-0.7016,-0.7016,-0.7015,0,-0.6634,-0.6674,-0.6698,-0.6724,-0.6743,-0.6764,-0.6787,-0.6808,-0.6851,-0.6863,-0.6865,-0.6925,-0.695,-0.6987,-0.699,-0.7005,-0.7011,-0.701,-0.7026,-0.7028,-0.7029,-0.7034,-0.7036,-0.7015,-0.7015,-0.7015,-0.7015,0,-0.6665,-0.6691,-0.6706,-0.6745,-0.6765,-0.679,-0.6818,-0.6835,-0.6849,-0.6869,-0.6901,-0.6931,-0.6965,-0.6975,-0.699,-0.7013,-0.7014,-0.702,-0.7024,-0.7029,-0.7034,-0.7036,-0.7014,-0.7014,-0.7014,-0.7014,0,0,-0.6667,-0.6717,-0.6722,-0.6739,-0.6778,-0.6799,-0.6823,-0.6856,-0.6869,-0.6897,-0.6918,-0.6958,-0.6963,-0.6984,-0.7001,-0.7014,-0.7024,-0.702,-0.7021,-0.7019,-0.705,-0.7045,-0.7047,-0.7032,-0.7033,-0.7033,-0.7047,0,-0.6683,-0.6728,-0.6749,-0.6784,-0.6809,-0.6827,-0.6849,-0.6874,-0.6893,-0.6916,-0.6937,-0.6964,-0.697,-0.6982,-0.6996,-0.702,-0.7031,-0.7019,-0.7052,-0.7053,-0.7043,-0.705,-0.7045,-0.7057,-0.7049,-0.705,-0.705,0,-0.6709,-0.6735,-0.6772,-0.6805,-0.6816,-0.6835,-0.6865,-0.6887,-0.6916,-0.6928,-0.6949,-0.6965,-0.6991,-0.6992,-0.7027,-0.7019,-0.7033,-0.7046,-0.7047,-0.7052,-0.7052,-0.7054,-0.7062,-0.7063,-0.7054,-0.7054,-0.7053,0,-0.6706,-0.675,-0.6778,-0.6792,-0.6832,-0.6844,-0.6861,-0.689,-0.6907,-0.6933,-0.6944,-0.6973,-0.6989,-0.7011,-0.7034,-0.7032,-0.7067,-0.707,-0.7078,-0.7077,-0.7085,-0.7084,-0.7094,-0.7094,-0.7094,-0.7094,-0.7093,0,-0.6722,-0.6744,-0.6777,-0.6794,-0.6818,-0.6842,-0.6865,-0.6884,-0.6908,-0.6929,-0.6947,-0.6966,-0.6995,-0.7017,-0.7035,-0.7061,-0.7068,-0.7079,-0.7083,-0.7077,-0.7076,-0.7088,-0.7088,-0.7094,-0.7094,-0.7094,-0.7094,0,-0.6724,-0.6747,-0.6778,-0.6812,-0.6821,-0.6837,-0.6866,-0.6883,-0.6902,-0.6927,-0.6935,-0.6964,-0.6991,-0.7015,-0.7052,-0.7064,-0.709,-0.7096,-0.708,-0.7082,-0.7089,-0.7088,-0.7107,-0.7111,-0.7107,-0.7107,-0.7107,0,-0.6733,-0.675,-0.6785,-0.6799,-0.6816,-0.6839,-0.6856,-0.6879,-0.6896,-0.6928,-0.6941,-0.6969,-0.6992,-0.7034,-0.7059,-0.7086,-0.7093,-0.7097,-0.7097,-0.709,-0.7092,-0.7091,-0.7092,-0.7097,-0.7097,-0.7097,-0.7097,0,-0.6746,-0.6756,-0.6779,-0.6806,-0.6825,-0.6847,-0.687,-0.6881,-0.6908,-0.6926,-0.6953,-0.6971,-0.7007,-0.7034,-0.7063,-0.7081,-0.7093,-0.7097,-0.71,-0.7094,-0.7084,-0.7089,-0.7079,-0.7097,-0.7097,-0.7097,-0.7097,-0.7097,-0.6752,-0.6767,-0.6793,-0.6818,-0.6837,-0.6857,-0.6874,-0.6893,-0.6916,-0.6946,-0.6958,-0.6985,-0.7012,-0.7052,-0.7069,-0.7091,-0.7093,-0.7098,-0.71,-0.71,-0.7099,-0.708,-0.7096,-0.7096,-0.7096,-0.7096,-0.7096,0,-0.6765,-0.6782,-0.6805,-0.6835,-0.6854,-0.6862,-0.6888,-0.6903,-0.6926,-0.6949,-0.6971,-0.7001,-0.7027,-0.7052,-0.7079,-0.7091,-0.7098,-0.7098,-0.7097,-0.7101,-0.7095,-0.709,-0.7092,-0.7092,-0.7092,-0.7092,-0.7092,-0.7092,-0.6774,-0.68,-0.6812,-0.6847,-0.6864,-0.689,-0.6903,-0.6922,-0.694,-0.6972,-0.6993,-0.7009,-0.7033,-0.7061,-0.7084,-0.7091,-0.71,-0.7099,-0.7107,-0.7101,-0.7102,-0.7102,-0.7097,-0.71,-0.71,-0.7111,-0.7111,-0.7111]}]]